Weather reports worldwide

Advertisment
Cherbourg, France (7024): temperature & dewpoint: 16.09.2018 23:00:00 - 22.09.2018 23:00:00 (CEST)Cherbourg, France (7024): temperature 5cm: 16.09.2018 23:00:00 - 22.09.2018 23:00:00 (CEST)Cherbourg, France (7024): temperature -20cm & temperature -100cm: 16.09.2018 23:00:00 - 22.09.2018 23:00:00 (CEST)Cherbourg, France (7024): wind speed & gusts: 16.09.2018 23:00:00 - 22.09.2018 23:00:00 (CEST)Cherbourg, France (7024): wind direction: 16.09.2018 23:00:00 - 22.09.2018 23:00:00 (CEST)Cherbourg, France (7024): reduced air pressure: 16.09.2018 23:00:00 - 22.09.2018 23:00:00 (CEST)Cherbourg, France (7024): visibility: 16.09.2018 23:00:00 - 22.09.2018 23:00:00 (CEST)Cherbourg, France (7024): sunshine duration: 16.09.2018 23:00:00 - 22.09.2018 23:00:00 (CEST)Cherbourg, France (7024): precipitation: 16.09.2018 23:00:00 - 22.09.2018 23:00:00 (CEST)
Date & Time tt [°C] td [°C] tt 5cm [°C] tt -20cm [°C] tt -100cm [°C] ff [km/h] ff [kn] fx [km/h] fx [kn] dd ppp [hPa] vv [km] sd [min] rr [mm]
22.09.2018 23:00:00 17,7 17,1 17,4 14,7 15,2 41 22 63 34 WSW 1012,2 2,2 0 0,8
22.09.2018 22:00:00 17,7 17,1 17,4 14,7 15,2 41 22 67 36 WSW 1011,8 1,7 0 0,4
22.09.2018 21:00:00 17,8 17,2 17,4 14,6 15,2 42 23 65 35 WSW 1011,4 3,1 0 0,6
22.09.2018 20:00:00 17,7 17,1 14,2 14,6 15,3 36 20 60 33 WSW 1010,9 2,7 0 2,0
22.09.2018 19:00:00 14,1 13,5 12,7 14,6 15,3 20 11 34 19 S 1011,0 2,1 0 2,0
22.09.2018 18:00:00 12,6 12,0 12,3 14,7 15,3 26 14 49 26 SSE 1011,9 2,5 0 1,4
22.09.2018 17:00:00 12,1 11,3 11,4 14,7 15,3 28 15 48 26 SSE 1013,5 3,7 0 1,1
22.09.2018 16:00:00 11,1 10,2 10,8 14,7 15,3 27 15 42 23 SE 1015,4 4,3 0 2,8
22.09.2018 15:00:00 11,2 9,5 11,0 14,7 15,3 22 12 45 24 SE 1017,0 6 0 0,4
22.09.2018 14:00:00 11,9 10,1 11,8 14,7 15,3 16 9 32 17 S 1018,9 9 0 0,6
22.09.2018 13:00:00 12,1 10,5 11,7 14,7 15,3 15 8 24 13 SSE 1019,9 9 0 1,4
22.09.2018 12:00:00 12,0 10,2 11,9 14,7 15,3 9 5 18 10 SSE 1020,8 11 0 0,4
22.09.2018 11:00:00 11,8 9,5 10,4 14,7 15,3 6 4 21 11 SSE 1021,0 20 0 0,4
22.09.2018 10:00:00 11,2 9,5 10,8 14,7 15,3 16 9 22 12 S 1021,6 3,9 0 1,0
22.09.2018 09:00:00 11,5 9,1 10,4 14,7 15,3 6 4 11 6 S 1021,4 14 0 0,0
22.09.2018 08:00:00 11,7 8,0 11,0 14,8 15,3 9 5 18 10 SSW 1021,3 19 0 0,0
22.09.2018 07:00:00 12,2 7,9 11,3 14,8 15,3 13 7 18 10 WSW 1021,4 37 0 0,0
22.09.2018 06:00:00 11,8 7,5 10,8 14,8 15,3 10 5 14 8 SW 1021,7 20 0 0,0
22.09.2018 05:00:00 11,8 6,9 10,8 14,9 15,3 11 6 19 10 WSW 1022,1 40 0 0,0
22.09.2018 04:00:00 11,5 6,8 10,2 15,0 15,3 12 6 16 9 WSW 1022,2 38 0 0,0
22.09.2018 03:00:00 11,3 6,4 9,8 15,0 15,3 11 6 24 13 WSW 1022,0 37 0 0,0
22.09.2018 02:00:00 11,6 6,5 10,0 15,1 15,3 14 8 22 12 WSW 1021,9 41 0 0,0
22.09.2018 01:00:00 11,2 6,5 10,0 15,1 15,3 15 8 25 13 WSW 1022,2 20 0 0,0
22.09.2018 00:00:00 11,2 7,1 9,7 15,2 15,3 15 8 24 13 WSW 1022,2 20 0 0,0
21.09.2018 23:00:00 12,0 7,3 11,0 15,2 15,3 17 9 31 17 WSW 1021,3 20 0 0,0
21.09.2018 22:00:00 12,5 7,8 10,5 15,3 15,3 21 11 42 23 W 1021,0 20 0 0,0
21.09.2018 21:00:00 12,7 6,7 11,5 15,3 15,3 23 13 47 25 W 1020,4 20 0 0,0
21.09.2018 20:00:00 13,0 6,3 12,2 15,4 15,3 28 15 55 30 W 1019,6 48 24 0,0
21.09.2018 19:00:00 14,1 6,0 13,2 15,4 15,3 35 19 61 33 W 1018,9 19 34 0,0
21.09.2018 18:00:00 14,9 6,2 15,0 15,4 15,3 39 21 63 34 W 1018,3 20 47 0,0
21.09.2018 17:00:00 15,0 6,3 14,7 15,4 15,3 40 22 68 37 W 1017,9 20 39 0,0
21.09.2018 16:00:00 15,1 5,0 14,9 15,4 15,3 41 22 67 36 W 1017,3 18 37 0,0
21.09.2018 15:00:00 16,1 6,0 15,2 15,4 15,3 40 22 64 35 W 1016,5 20 37 0,0
21.09.2018 14:00:00 15,8 6,0 15,4 15,3 15,3 43 23 65 35 W 1015,9 19 50 0,0
21.09.2018 13:00:00 15,3 6,6 16,6 15,4 15,3 36 19 62 34 W 1015,1 20 50 0,0
21.09.2018 12:00:00 14,2 5,8 14,7 15,4 15,3 37 20 61 33 W 1014,6 20 50 0,0
21.09.2018 11:00:00 14,0 6,4 11,2 15,5 15,3 36 19 55 30 W 1013,8 20 39 0,0
21.09.2018 10:00:00 13,0 5,9 11,4 15,6 15,3 37 20 57 31 W 1012,7 19 24 0,0
21.09.2018 09:00:00 11,9 6,0 11,3 15,7 15,3 34 19 60 32 W 1011,6 50 0 0,0
21.09.2018 08:00:00 12,3 6,6 11,6 15,8 15,3 37 20 66 35 W 1010,1 57 0 0,0
21.09.2018 07:00:00 12,9 7,6 12,2 15,9 15,3 44 24 72 39 W 1008,6 48 0 0,0
21.09.2018 06:00:00 13,3 8,8 12,4 16,0 15,3 50 27 76 41 W 1006,9 45 0 0,0
21.09.2018 05:00:00 13,8 9,0 12,8 16,0 15,3 38 21 59 32 W 1006,0 18 0 0,0
21.09.2018 04:00:00 14,1 10,3 13,4 16,1 15,3 41 22 64 35 W 1005,0 19 0 0,0
21.09.2018 03:00:00 14,4 12,6 14,0 16,0 15,3 54 29 82 44 W 1004,2 1,0 0 7,1
21.09.2018 02:00:00 17,1 15,4 16,3 16,1 15,3 40 22 69 38 SSW 1002,9 5 0 0,6
21.09.2018 01:00:00 17,2 15,2 16,4 16,1 15,3 40 22 76 41 SSW 1004,5 6 0 0,8
21.09.2018 00:00:00 18,4 14,5 18,1 16,1 15,3 43 23 70 38 SSW 1005,9 20 0 0,0
20.09.2018 23:00:00 18,6 14,3 18,3 16,1 15,3 43 23 73 40 SSW 1006,7 20 0 0,0
20.09.2018 22:00:00 18,9 13,7 18,4 16,1 15,2 37 20 63 34 SSW 1007,8 20 0 0,0
20.09.2018 21:00:00 19,3 12,6 18,5 16,1 15,3 35 19 57 31 SSW 1008,6 46 0 0,0
20.09.2018 20:00:00 19,2 12,5 18,6 16,1 15,3 27 15 50 27 SSW 1009,0 42 13 0,0
20.09.2018 19:00:00 19,9 12,6 19,8 16,1 15,2 31 17 56 30 SSW 1010,3 20 22 0,0
20.09.2018 18:00:00 20,5 13,5 21,1 16,0 15,3 29 16 63 34 SSW 1011,2 20 12 0,0
20.09.2018 17:00:00 21,3 13,5 22,3 16,0 15,3 35 19 66 36 SSW 1011,6 40 25 0,0
20.09.2018 16:00:00 21,1 13,5 22,7 15,9 15,2 41 22 64 35 SSW 1012,1 20 9 0,0
20.09.2018 15:00:00 21,9 13,8 22,4 15,9 15,3 41 22 69 38 SW 1012,9 19 24 0,0
20.09.2018 14:00:00 20,6 14,0 20,7 15,8 15,3 39 21 57 31 SSW 1013,6 19 3 0,0
20.09.2018 13:00:00 19,7 13,6 21,0 15,8 15,2 33 18 55 30 SSW 1014,6 18 9 0,0
20.09.2018 12:00:00 19,7 13,6 18,9 15,8 15,3 35 19 54 29 SW 1014,9 17 12 0,0
20.09.2018 11:00:00 18,2 13,3 18,7 15,8 15,2 32 18 51 28 SSW 1015,3 18 2 0,0
20.09.2018 10:00:00 17,8 13,3 16,8 15,8 15,3 29 16 43 23 SSW 1015,4 18 6 0,0
20.09.2018 09:00:00 16,9 12,8 15,9 15,8 15,2 29 15 50 27 SW 1015,6 18 0 0,0
20.09.2018 08:00:00 16,5 12,8 15,8 15,9 15,2 29 16 48 26 SSW 1015,7 17 0 0,0
20.09.2018 07:00:00 16,5 12,6 15,9 15,9 15,3 30 16 48 26 SW 1015,9 18 0 0,0
20.09.2018 06:00:00 17,1 13,8 16,0 15,9 15,2 30 16 45 25 SW 1015,8 18 0 0,0
20.09.2018 05:00:00 16,9 14,0 16,0 15,9 15,2 27 15 49 26 SW 1016,0 16 0 0,0
20.09.2018 04:00:00 16,9 13,6 16,1 16,0 15,2 29 16 45 25 SW 1016,4 17 0 0,0
20.09.2018 03:00:00 17,2 14,7 16,0 16,0 15,2 27 15 43 23 SSW 1016,3 15 0 0,0
20.09.2018 02:00:00 16,6 15,0 15,7 16,0 15,2 23 13 41 22 SSW 1016,7 13 0 0,0
20.09.2018 01:00:00 16,5 14,9 15,0 16,1 15,2 19 10 29 15 SSW 1017,1 13 0 0,0
20.09.2018 00:00:00 16,1 14,5 15,3 16,1 15,2 16 9 23 13 SSW 1017,5 10 0 0,0
19.09.2018 23:00:00 16,5 14,5 15,5 16,1 15,2 16 9 27 14 SW 1017,8 12 0 0,0
19.09.2018 22:00:00 16,7 14,2 15,9 16,1 15,2 17 9 31 17 SW 1017,7 12 0 0,0
19.09.2018 21:00:00 18,0 14,3 17,2 16,1 15,2 22 12 43 23 WSW 1017,6 15 0 0,0
19.09.2018 20:00:00 18,8 14,7 18,5 16,1 15,2 19 10 35 19 WSW 1017,2 18 35 0,0
19.09.2018 19:00:00 20,1 14,7 20,6 16,1 15,2 27 15 45 25 WSW 1016,9 20 53 0,0
19.09.2018 18:00:00 20,1 14,5 20,2 16,0 15,2 28 15 49 27 WSW 1016,7 19 5 0,0
19.09.2018 17:00:00 20,7 14,1 20,8 16,0 15,2 29 16 51 27 WSW 1016,6 19 10 0,0
19.09.2018 16:00:00 21,6 14,5 21,9 15,9 15,2 34 18 58 31 SW 1016,6 47 14 0,0
19.09.2018 15:00:00 21,0 14,4 22,4 15,8 15,2 30 16 59 32 SW 1016,6 20 25 0,0
19.09.2018 14:00:00 20,8 14,4 21,5 15,7 15,2 36 19 63 34 SSW 1016,4 19 21 0,0
19.09.2018 13:00:00 20,5 13,9 21,7 15,7 15,2 37 20 55 30 SW 1016,3 19 31 0,0
19.09.2018 12:00:00 20,0 14,4 19,2 15,6 15,2 33 18 49 26 SSW 1016,1 19 12 0,0
19.09.2018 11:00:00 18,4 14,5 19,0 15,6 15,2 30 16 45 24 SSW 1016,4 16 18 0,0
19.09.2018 10:00:00 18,2 14,5 17,3 15,6 15,2 31 17 48 26 SSW 1016,0 15 10 0,0
19.09.2018 09:00:00 17,2 14,3 16,3 15,7 15,2 24 13 45 24 SSW 1015,4 14 1 0,0
19.09.2018 08:00:00 16,5 14,3 15,9 15,7 15,2 19 10 39 21 S 1015,1 12 0 0,0
19.09.2018 07:00:00 16,4 14,4 15,4 15,7 15,2 22 12 37 20 SSW 1014,7 12 0 0,0
19.09.2018 06:00:00 16,1 13,9 15,4 15,7 15,2 21 11 35 19 SSW 1014,9 12 0 0,0
19.09.2018 05:00:00 16,1 14,1 15,2 15,8 15,2 20 11 31 17 SSW 1014,9 12 0 0,0
19.09.2018 04:00:00 16,3 14,0 15,5 15,8 15,2 20 11 30 16 SSW 1015,0 13 0 0,0
19.09.2018 03:00:00 16,9 13,6 16,1 15,9 15,2 23 12 33 18 SSW 1015,1 16 0 0,0
19.09.2018 02:00:00 16,7 13,0 14,6 15,9 15,2 19 11 29 16 SW 1015,4 18 0 0,0
19.09.2018 01:00:00 15,5 12,8 14,5 16,0 15,3 15 8 21 11 SW 1015,4 18 0 0,0
19.09.2018 00:00:00 15,6 12,7 14,0 16,0 15,3 11 6 15 8 SSW 1015,3 18 0 0,0
18.09.2018 23:00:00 16,2 12,6 15,3 16,0 15,2 10 6 13 7 SW 1015,4 19 0 0,0
18.09.2018 22:00:00 16,5 12,5 14,5 16,0 15,2 9 5 13 7 SSW 1015,4 20 0 0,0
18.09.2018 21:00:00 16,2 12,0 14,5 16,0 15,2 10 5 16 9 WSW 1015,1 19 0 0,0
18.09.2018 20:00:00 18,6 12,6 18,1 16,0 15,2 11 6 21 11 WSW 1014,7 20 4 0,0
18.09.2018 19:00:00 19,5 12,3 19,2 16,0 15,2 16 9 32 17 SW 1014,3 20 43 0,0
18.09.2018 18:00:00 21,0 12,9 22,8 15,9 15,2 21 11 38 20 SW 1014,2 19 45 0,0
18.09.2018 17:00:00 21,5 13,1 22,4 15,8 15,2 26 14 46 25 WSW 1014,3 20 41 0,0
18.09.2018 16:00:00 21,0 12,7 22,9 15,7 15,3 34 18 50 27 SW 1014,3 28 44 0,0
18.09.2018 15:00:00 20,8 13,2 20,7 15,6 15,2 28 15 50 27 SW 1014,1 19 40 0,0
18.09.2018 14:00:00 19,7 13,8 19,6 15,6 15,2 29 15 48 26 SW 1013,9 19 11 0,0
18.09.2018 13:00:00 18,4 12,8 19,4 15,6 15,2 34 18 55 30 WSW 1013,7 18 8 0,0
18.09.2018 12:00:00 17,9 12,6 19,3 15,6 15,2 35 19 61 33 WSW 1013,1 15 6 0,0
18.09.2018 11:00:00 17,9 12,6 17,4 15,6 15,2 40 21 56 30 WSW 1012,3 13 12 0,0
18.09.2018 10:00:00 17,3 12,6 17,7 15,6 15,3 37 20 60 32 WSW 1011,6 13 3 0,0
18.09.2018 09:00:00 18,0 12,0 17,3 15,6 15,3 31 17 61 33 WSW 1010,4 14 45 0,0
18.09.2018 08:00:00 17,5 12,0 17,0 15,6 15,2 34 18 66 35 WSW 1009,7 19 0 0,0
18.09.2018 07:00:00 18,1 13,0 17,7 15,6 15,2 30 16 60 33 SW 1009,1 19 0 0,0
18.09.2018 06:00:00 18,2 13,9 17,7 15,6 15,2 35 19 58 31 SW 1009,0 18 0 0,0
18.09.2018 05:00:00 17,9 15,0 16,5 15,6 15,2 27 15 49 26 SSW 1009,0 19 0 0,0
18.09.2018 04:00:00 17,2 14,8 16,5 15,6 15,3 27 15 41 22 S 1008,7 16 0 0,0
18.09.2018 03:00:00 17,6 14,9 16,2 15,7 15,3 27 15 44 24 SSW 1009,1 16 0 0,0
18.09.2018 02:00:00 16,8 14,4 15,9 15,7 15,3 28 15 45 24 SSW 1008,9 17 0 0,0
18.09.2018 01:00:00 16,9 13,2 16,0 15,7 15,3 25 14 47 26 SSW 1009,1 29 0 0,0
18.09.2018 00:00:00 17,9 11,2 17,0 15,8 15,3 28 15 41 22 SSW 1009,1 44 0 0,0
17.09.2018 23:00:00 18,5 12,0 14,7 15,9 15,3 20 11 31 17 SSW 1008,9 44 0 0,0
17.09.2018 22:00:00 17,7 11,3 15,3 15,9 15,3 9 5 11 6 S 1009,4 47 0 0,0
17.09.2018 21:00:00 18,8 11,4 15,9 15,9 15,3 7 4 16 8 SSE 1009,8 53 0 0,0
17.09.2018 20:00:00 19,4 11,7 18,6 15,8 15,3 9 5 15 8 SE 1010,1 56 39 0,0
17.09.2018 19:00:00 22,2 10,7 24,8 15,7 15,3 9 5 23 13 SE 1010,6 17 60 0,0
17.09.2018 18:00:00 23,2 10,9 26,3 15,6 15,3 18 10 28 15 ESE 1011,1 20 60 0,0
17.09.2018 17:00:00 26,1 9,4 29,8 15,4 15,3 21 12 35 19 S 1011,7 48 60 0,0
17.09.2018 16:00:00 26,1 9,0 30,6 15,2 15,3 20 11 35 19 S 1012,6 42 60 0,0
17.09.2018 15:00:00 25,2 9,5 28,3 15,1 15,3 22 12 37 20 S 1013,8 20 60 0,0
17.09.2018 14:00:00 23,3 9,3 27,1 15,0 15,3 23 12 35 19 S 1015,0 54 60 0,0
17.09.2018 13:00:00 21,5 10,3 24,2 14,8 15,3 20 11 34 18 S 1015,8 59 47 0,0
17.09.2018 12:00:00 20,4 9,3 23,0 14,8 15,3 19 10 31 17 S 1016,5 57 60 0,0
17.09.2018 11:00:00 17,7 11,5 18,9 14,7 15,3 19 10 27 15 S 1016,8 20 60 0,0
17.09.2018 10:00:00 15,6 10,8 13,1 14,8 15,3 14 8 20 11 SSE 1016,9 19 32 0,0
17.09.2018 09:00:00 12,1 11,2 4,5 14,9 15,3 11 6 14 8 SE 1017,9 19 1 0,0
17.09.2018 08:00:00 12,1 11,5 3,8 15,0 15,3 6 3 7 4 SE 1018,0 0,6 0 0,0
17.09.2018 07:00:00 11,7 11,1 4,4 15,1 15,3 5 3 7 4 SSE 1018,4 0,1 0 0,0
17.09.2018 06:00:00 11,4 10,3 4,8 15,1 15,3 3 1 9 5 S 1018,4 0,1 0 0,2
17.09.2018 05:00:00 11,8 11,0 5,5 15,2 15,3 4 2 7 4 SSW 1018,8 0,5 0 0,0
17.09.2018 04:00:00 12,1 11,2 7,7 15,3 15,3 5 3 13 7 W 1019,1 5 0 0,0
17.09.2018 03:00:00 12,4 11,3 6,1 15,4 15,3 8 4 11 6 W 1019,8 10 0 0,0
17.09.2018 02:00:00 13,4 11,3 7,4 15,4 15,3 3 2 11 6 SW 1019,8 18 0 0,0
17.09.2018 01:00:00 13,1 11,3 7,1 15,5 15,3 9 5 12 6 WSW 1020,4 15 0 0,0
17.09.2018 00:00:00 13,2 10,7 7,5 15,6 15,3 5 3 11 6 SW 1020,4 20 0 0,0
16.09.2018 23:00:00 13,5 10,3 6,5 15,6 15,3 8 4 9 5 SSW 1020,4 20 0 0,0

tt = temperature
td = dewpoint
tt 5cm = temperature 5cm
tt -20cm = temperature -20cm
tt -100cm = temperature -100cm
ff = wind speed
fx = gusts
dd = wind direction
ppp = reduced air pressure
vv = visibility
sd = sunshine duration
rr = precipitation

Next stations